Weather History for KLSE - November, 2012

Change the Weather History Date:

Thursday, November 8, 2012

  Actual Average Record
Temperature  
Mean Temperature 45 °F 40 °F  
Max Temperature 53 °F 48 °F 74 °F (1999)
Min Temperature 36 °F 32 °F 5 °F (1991)
Degree Days  
Heating Degree Days 20 25  
Month to date heating degree days 197 184  
Since 1 July heating degree days 881 812  
Cooling Degree Days 0 0  
Month to date cooling degree days 0 0  
Year to date cooling degree days 1083 782  
Moisture  
Dew Point 34 °F    
Average Humidity 70    
Maximum Humidity 85    
Minimum Humidity 54    
Precipitation  
Precipitation 0.00 in 0.07 in 1.61 in (1937)
Month to date precipitation 0.21 0.53  
Year to date precipitation 23.67 30.22  
Snow  
Snow 0.00 in 0.10 in 2.00 in (1926)
Month to date snowfall T 0.4  
Since 1 July snowfall T 0.6  
Snow Depth 0.00 in    
Sea Level Pressure  
Sea Level Pressure 30.07 in    
Wind  
Wind Speed 9 mph (SSE)    
Max Wind Speed 20 mph    
Max Gust Speed 25 mph    
Visibility 10 miles    
Events      
T = Trace of Precipitation, MM = Missing Value Source: NWS Daily Summary

Daily Weather History Graph

Daily Weather History Graph

Search for Another Location

Airport or City:

Trip Planner

Search our weather history database for the weather conditions in past years. The results will help you decide how hot, cold, wet, or windy it might be!

Date:

Astronomy

Nov. 08, 2012 Rise Set
Actual Time 6:51 AM CST 4:45 PM CST
Civil Twilight 6:20 AM CST 5:16 PM CST
Nautical Twilight 5:46 AM CST 5:50 PM CST
Astronomical Twilight 5:12 AM CST 6:24 PM CST
Moon 12:35 AM CST (11/8) 1:37 PM CST (11/8)
Length of Visible Light 10h 55m
Length of Day
9h 54m
Waning Crescent, 32% of the Moon is Illuminated
Nov 8
Waning Crescent
Nov 13
New
Nov 20
First Quarter
Nov 28
Full
Dec 6
Last Quarter

Hourly Weather History & Observations

Time (CST) Temp. Windchill Dew Point Humidity Pressure Visibility Wind Dir Wind Speed Gust Speed Precip Events Conditions
12:53 AM 41.0 °F 39.0 °F 33.1 °F 73% 30.14 in 10.0 mi SSE 3.5 mph - N/A   Overcast
1:53 AM 41.0 °F 36.4 °F 34.0 °F 76% 30.14 in 10.0 mi South 6.9 mph - N/A   Overcast
2:53 AM 39.9 °F 35.8 °F 33.1 °F 77% 30.14 in 10.0 mi South 5.8 mph - N/A   Overcast
3:53 AM 37.9 °F 33.5 °F 32.0 °F 79% 30.12 in 10.0 mi SE 5.8 mph - N/A   Clear
4:53 AM 37.0 °F 31.6 °F 32.0 °F 82% 30.12 in 10.0 mi SSE 6.9 mph - N/A   Clear
5:53 AM 37.0 °F 31.6 °F 30.9 °F 79% 30.11 in 10.0 mi SSE 6.9 mph - N/A   Clear
6:53 AM 37.0 °F 31.6 °F 32.0 °F 82% 30.11 in 10.0 mi SSE 6.9 mph - N/A   Clear
7:53 AM 39.0 °F 32.3 °F 33.1 °F 79% 30.11 in 10.0 mi South 10.4 mph - N/A   Clear
8:53 AM 42.1 °F 35.2 °F 33.1 °F 70% 30.12 in 10.0 mi South 12.7 mph - N/A   Clear
9:53 AM 45.0 °F 38.2 °F 34.0 °F 65% 30.10 in 10.0 mi South 15.0 mph - N/A   Clear
10:53 AM 46.9 °F - 35.1 °F 63% 30.08 in 10.0 mi South 17.3 mph 23.0 mph N/A   Clear
11:53 AM 48.9 °F - 35.1 °F 59% 30.05 in 10.0 mi South 15.0 mph 21.9 mph N/A   Clear
12:53 PM 51.1 °F - 36.0 °F 56% 30.03 in 10.0 mi SSE 16.1 mph - N/A   Clear
1:53 PM 52.0 °F - 35.1 °F 53% 30.00 in 10.0 mi South 19.6 mph 25.3 mph N/A   Clear
2:53 PM 52.0 °F - 35.1 °F 53% 29.99 in 10.0 mi South 16.1 mph - N/A   Clear
3:53 PM 51.1 °F - 36.0 °F 56% 29.98 in 10.0 mi South 15.0 mph - N/A   Clear
4:53 PM 48.9 °F - 36.0 °F 61% 30.00 in 10.0 mi South 10.4 mph - N/A   Clear
5:53 PM 48.0 °F - 36.0 °F 63% 30.02 in 10.0 mi South 8.1 mph - N/A   Clear
6:53 PM 46.0 °F 44.8 °F 36.0 °F 68% 30.02 in 10.0 mi SSE 3.5 mph - N/A   Clear
7:53 PM 45.0 °F 41.8 °F 36.0 °F 71% 30.03 in 10.0 mi East 5.8 mph - N/A   Clear
8:53 PM 42.1 °F 39.2 °F 35.1 °F 76% 30.04 in 10.0 mi ESE 4.6 mph - N/A   Clear
9:53 PM 39.9 °F 35.8 °F 35.1 °F 83% 30.04 in 10.0 mi SE 5.8 mph - N/A   Clear
10:53 PM 37.9 °F 35.5 °F 34.0 °F 86% 30.05 in 10.0 mi SE 3.5 mph - N/A   Clear
11:53 PM 37.9 °F 33.5 °F 34.0 °F 86% 30.05 in 10.0 mi SSE 5.8 mph - N/A   Clear